Weather History for Bentonville, AR

Change the Weather History Date:

Monday, November 14, 2011

  Actual Average Record
Temperature  
Mean Temperature 60 °F -  
Max Temperature 69 °F 58 °F 78 °F (1964)
Min Temperature 51 °F 35 °F 8 °F (1986)
Degree Days  
Heating Degree Days 5    
Growing Degree Days 10 (Base 50)    
Moisture  
Dew Point 51 °F    
Average Humidity 68    
Maximum Humidity 94    
Minimum Humidity 42    
Precipitation  
Precipitation 0.18 in - - ()
Sea Level Pressure  
Sea Level Pressure 29.75 in    
Wind  
Wind Speed 13 mph (WSW)    
Max Wind Speed 20 mph    
Max Gust Speed 28 mph    
Visibility 10 miles    
Events      
Averages and records for this station are not official NWS values.
T = Trace of Precipitation, MM = Missing Value Source: NWS Daily Summary

Daily Weather History Graph

Daily Weather History Graph

Search for Another Location

Airport:

Trip Planner

Search our weather history database for the weather conditions in past years. The results will help you decide how hot, cold, wet, or windy it might be!

Date:

Astronomy

Nov. 14, 2011 Rise Set
Actual Time 6:52 AM CST 5:09 PM CST
Civil Twilight 6:25 AM CST 5:36 PM CST
Nautical Twilight 5:54 AM CST 6:07 PM CST
Astronomical Twilight 5:23 AM CST 6:38 PM CST
Moon 8:19 PM CST (11/14) 10:09 AM CST (11/14)
Length of Visible Light 11h 11m
Length of Day
10h 16m
Waning Gibbous, 86% of the Moon is Illuminated
Nov 14
Waning Gibbous
Nov 18
Last Quarter
Nov 25
New
Dec 2
First Quarter
Dec 10
Full

Hourly Weather History & Observations

Time (CST) Temp. Dew Point Humidity Pressure Visibility Wind Dir Wind Speed Gust Speed Precip Events Conditions
12:15 AM 69.8 °F 55.4 °F 60% 29.66 in 10.0 mi SSW 13.8 mph 26.5 mph N/A   Clear
12:35 AM 69.8 °F 55.4 °F 60% 29.65 in 10.0 mi SSW 17.3 mph 25.3 mph N/A   Clear
12:55 AM 69.8 °F 55.4 °F 60% 29.65 in 10.0 mi SSW 16.1 mph 21.9 mph N/A   Clear
1:15 AM 69.8 °F 55.4 °F 60% 29.65 in 10.0 mi SSW 19.6 mph 26.5 mph N/A   Clear
1:35 AM 69.8 °F 55.4 °F 60% 29.65 in 10.0 mi SSW 17.3 mph 26.5 mph N/A   Clear
1:55 AM 69.8 °F 55.4 °F 60% 29.65 in 10.0 mi SSW 18.4 mph 25.3 mph N/A   Clear
2:15 AM 69.8 °F 55.4 °F 60% 29.65 in 10.0 mi SSW 16.1 mph 23.0 mph N/A   Clear
2:35 AM 69.8 °F 57.2 °F 64% 29.66 in 10.0 mi SSW 15.0 mph 26.5 mph N/A   Clear
2:55 AM 69.8 °F 57.2 °F 64% 29.66 in 10.0 mi SSW 13.8 mph 27.6 mph N/A   Clear
3:35 AM 69.8 °F 57.2 °F 64% 29.66 in 10.0 mi SSW 16.1 mph 23.0 mph N/A   Clear
3:55 AM 69.8 °F 57.2 °F 64% 29.66 in 10.0 mi SSW 15.0 mph 21.9 mph N/A   Clear
4:15 AM 69.8 °F 57.2 °F 64% 29.66 in 10.0 mi SSW 12.7 mph 23.0 mph N/A   Clear
4:35 AM 68.0 °F 57.2 °F 68% 29.66 in 10.0 mi SSW 16.1 mph 21.9 mph N/A   Clear
4:55 AM 68.0 °F 57.2 °F 68% 29.67 in 10.0 mi SSW 12.7 mph 21.9 mph N/A   Clear
5:15 AM 68.0 °F 59.0 °F 73% 29.67 in 10.0 mi SSW 16.1 mph 25.3 mph N/A   Clear
6:15 AM 66.2 °F 59.0 °F 78% 29.68 in 10.0 mi SSW 17.3 mph 26.5 mph N/A   Clear
6:35 AM 66.2 °F 59.0 °F 78% 29.69 in 10.0 mi SW 17.3 mph 21.9 mph N/A   Clear
6:55 AM 66.2 °F 59.0 °F 78% 29.69 in 10.0 mi SW 15.0 mph 25.3 mph N/A   Partly Cloudy
7:35 AM 66.2 °F 60.8 °F 83% 29.70 in 10.0 mi SW 15.0 mph 21.9 mph N/A   Clear
7:55 AM 68.0 °F 60.8 °F 78% 29.71 in 10.0 mi SW 17.3 mph 26.5 mph N/A   Clear
8:15 AM 68.0 °F 60.8 °F 78% 29.72 in 10.0 mi SW 18.4 mph 23.0 mph N/A   Clear
8:35 AM 69.8 °F 60.8 °F 73% 29.73 in 10.0 mi SW 17.3 mph 24.2 mph N/A   Clear
8:55 AM 69.8 °F 59.0 °F 68% 29.74 in 10.0 mi SW 18.4 mph 24.2 mph N/A   Partly Cloudy
9:15 AM 69.8 °F 57.2 °F 64% 29.75 in 10.0 mi SW 13.8 mph 20.7 mph N/A   Clear
9:35 AM 69.8 °F 57.2 °F 64% 29.75 in 10.0 mi WSW 17.3 mph 20.7 mph N/A   Clear
9:55 AM 69.8 °F 57.2 °F 64% 29.75 in 10.0 mi SW 19.6 mph - N/A   Partly Cloudy
10:35 AM 69.8 °F 53.6 °F 56% 29.76 in 8.0 mi West 11.5 mph 19.6 mph N/A   Mostly Cloudy
10:55 AM 69.8 °F 53.6 °F 56% 29.77 in 10.0 mi WSW 13.8 mph - N/A   Partly Cloudy
11:35 AM 69.8 °F 51.8 °F 53% 29.78 in 10.0 mi West 18.4 mph 24.2 mph N/A   Clear
12:15 PM 69.8 °F 50.0 °F 49% 29.78 in 4.0 mi West 9.2 mph 18.4 mph N/A   Partly Cloudy
12:35 PM 68.0 °F 50.0 °F 52% 29.78 in 4.0 mi West 12.7 mph - N/A   Mostly Cloudy
1:15 PM 66.2 °F 46.4 °F 49% 29.78 in 7.0 mi NW 12.7 mph 18.4 mph N/A   Scattered Clouds
1:35 PM 64.4 °F 42.8 °F 45% 29.78 in 9.0 mi NW 12.7 mph 17.3 mph N/A   Scattered Clouds
1:55 PM 62.6 °F 42.8 °F 48% 29.78 in 10.0 mi NW 9.2 mph - N/A   Mostly Cloudy
2:15 PM 64.4 °F 42.8 °F 45% 29.78 in 7.0 mi NW 6.9 mph - N/A   Mostly Cloudy
2:35 PM 62.6 °F 39.2 °F 42% 29.78 in 6.0 mi WNW 9.2 mph - N/A   Overcast
2:55 PM 62.6 °F 41.0 °F 45% 29.79 in 10.0 mi WNW 6.9 mph - N/A   Overcast
3:15 PM 60.8 °F 42.8 °F 52% 29.80 in 8.0 mi WNW 4.6 mph - N/A   Overcast
3:35 PM 60.8 °F 42.8 °F 52% 29.79 in 9.0 mi Calm Calm - N/A   Overcast
3:55 PM 60.8 °F 46.4 °F 59% 29.78 in 8.0 mi Calm Calm - N/A   Overcast
4:15 PM 59.0 °F 48.2 °F 67% 29.79 in 10.0 mi Calm Calm - N/A   Overcast
4:35 PM 57.2 °F 46.4 °F 67% 29.80 in 10.0 mi WNW 5.8 mph - N/A   Overcast
4:55 PM 57.2 °F 46.4 °F 67% 29.81 in 10.0 mi Calm Calm - 0.01 in   Overcast
5:15 PM 57.2 °F 46.4 °F 67% 29.81 in 10.0 mi West 3.5 mph - N/A   Overcast
5:35 PM 55.4 °F 46.4 °F 72% 29.83 in 10.0 mi NW 4.6 mph - N/A   Overcast
5:55 PM 55.4 °F 46.4 °F 72% 29.83 in 10.0 mi NNW 6.9 mph - 0.01 in   Overcast
6:15 PM 55.4 °F 42.8 °F 63% 29.84 in 10.0 mi NNW 6.9 mph - N/A   Overcast
6:35 PM 53.6 °F 42.8 °F 67% 29.84 in 10.0 mi Calm Calm - 0.02 in   Overcast
6:55 PM 51.8 °F 44.6 °F 76% 29.84 in 10.0 mi NNW 5.8 mph - 0.04 in   Overcast
7:15 PM 51.8 °F 42.8 °F 71% 29.83 in 10.0 mi North 8.1 mph - 0.03 in   Overcast
7:35 PM 51.8 °F 44.6 °F 76% 29.83 in 10.0 mi North 6.9 mph - 0.05 in   Overcast
7:55 PM 51.8 °F 46.4 °F 82% 29.82 in 10.0 mi North 6.9 mph - 0.06 in   Overcast
8:15 PM 51.8 °F 48.2 °F 88% 29.81 in 10.0 mi NNW 6.9 mph - 0.01 in   Overcast
8:35 PM 53.6 °F 48.2 °F 82% 29.82 in 10.0 mi NW 3.5 mph - 0.02 in   Overcast
8:55 PM 53.6 °F 48.2 °F 82% 29.81 in 10.0 mi Calm Calm - 0.02 in   Overcast
9:15 PM 53.6 °F 50.0 °F 88% 29.81 in 10.0 mi SSE 8.1 mph - N/A   Overcast
9:35 PM 53.6 °F 50.0 °F 88% 29.81 in 10.0 mi SSE 3.5 mph - N/A   Overcast
9:55 PM 53.6 °F 50.0 °F 88% 29.81 in 10.0 mi SSE 6.9 mph - 0.01 in   Mostly Cloudy
10:15 PM 53.6 °F 50.0 °F 88% 29.80 in 10.0 mi SE 5.8 mph - 0.01 in   Overcast
10:35 PM 53.6 °F 51.8 °F 94% 29.78 in 10.0 mi Calm Calm - 0.02 in   Overcast
10:55 PM 53.6 °F 51.8 °F 94% 29.79 in 10.0 mi SE 5.8 mph - 0.03 in   Overcast
11:15 PM 53.6 °F 50.0 °F 88% 29.78 in 10.0 mi SE 5.8 mph - N/A   Overcast
11:35 PM 53.6 °F 50.0 °F 88% 29.80 in 10.0 mi Calm Calm - N/A   Overcast
11:55 PM 51.8 °F 50.0 °F 94% 29.79 in 10.0 mi SE 4.6 mph - 0.01 in   Overcast